Time,TemperatureF,DewpointF,PressureIn,WindDirection,WindDirectionDegrees,WindSpeedMPH,WindSpeedGustMPH,Humidity,HourlyPrecipIn,Conditions,Clouds,dailyrainin,SoftwareType,DateUTC
2013-07-19 00:02:00,56.8,51.7,29.09,WNW,292,4.6,4.6,83,0.00,CLR,OVC,0.00,WeatherDisplay:10.37,2013-07-19 07:02:00,
2013-07-19 00:07:00,56.7,51.6,29.09,WSW,248,4.3,4.3,83,0.00,CLR,OVC,0.00,WeatherDisplay:10.37,2013-07-19 07:07:00,
2013-07-19 00:12:00,56.5,51.4,29.09,West,270,4.6,4.6,83,0.00,CLR,OVC,0.00,WeatherDisplay:10.37,2013-07-19 07:12:00,
2013-07-19 00:17:00,56.5,51.4,29.09,West,270,5.4,5.4,83,0.00,CLR,OVC,0.00,WeatherDisplay:10.37,2013-07-19 07:17:00,
2013-07-19 00:22:00,56.3,51.2,29.09,WNW,292,6.0,6.0,83,0.00,CLR,OVC,0.00,WeatherDisplay:10.37,2013-07-19 07:22:00,
2013-07-19 00:27:00,56.3,51.5,29.09,West,270,3.5,3.5,84,0.00,CLR,OVC,0.00,WeatherDisplay:10.37,2013-07-19 07:27:00,
2013-07-19 00:32:00,56.1,51.4,29.09,WNW,292,4.6,4.6,84,0.00,CLR,OVC,0.00,WeatherDisplay:10.37,2013-07-19 07:32:00,
2013-07-19 00:37:00,55.9,50.9,29.09,WSW,248,3.5,3.5,83,0.00,CLR,OVC,0.00,WeatherDisplay:10.37,2013-07-19 07:37:00,
2013-07-19 00:42:00,55.8,50.7,29.09,West,270,2.3,2.3,83,0.00,CLR,OVC,0.00,WeatherDisplay:10.37,2013-07-19 07:42:00,
2013-07-19 00:47:00,55.8,51.0,29.09,WNW,292,3.5,3.5,84,0.00,CLR,OVC,0.00,WeatherDisplay:10.37,2013-07-19 07:47:00,
2013-07-19 00:52:00,55.6,51.1,29.09,NW,315,4.0,4.0,85,0.00,CLR,OVC,0.00,WeatherDisplay:10.37,2013-07-19 07:52:00,
2013-07-19 00:57:00,55.4,51.0,29.09,West,270,6.2,6.2,85,0.00,CLR,OVC,0.00,WeatherDisplay:10.37,2013-07-19 07:57:00,
2013-07-19 01:02:00,55.4,51.0,29.09,NNW,338,4.6,4.6,85,0.00,CLR,OVC,0.00,WeatherDisplay:10.37,2013-07-19 08:02:00,
2013-07-19 01:07:00,55.4,50.6,29.09,South,180,2.3,2.3,84,0.00,CLR,OVC,0.00,WeatherDisplay:10.37,2013-07-19 08:07:00,
2013-07-19 01:12:00,55.2,50.8,29.08,WNW,292,3.5,3.5,85,0.00,CLR,OVC,0.00,WeatherDisplay:10.37,2013-07-19 08:12:00,
2013-07-19 01:17:00,55.0,50.3,29.08,East,90,2.3,2.3,84,0.00,CLR,OVC,0.00,WeatherDisplay:10.37,2013-07-19 08:17:00,
2013-07-19 01:22:00,54.9,50.1,29.08,WSW,248,3.6,3.6,84,0.00,CLR,OVC,0.00,WeatherDisplay:10.37,2013-07-19 08:22:00,
2013-07-19 01:27:00,54.5,50.1,29.08,West,270,2.3,2.3,85,0.00,CLR,OVC,0.00,WeatherDisplay:10.37,2013-07-19 08:27:00,
2013-07-19 01:32:00,54.3,50.2,29.08,West,270,3.5,3.5,86,0.00,CLR,OVC,0.00,WeatherDisplay:10.37,2013-07-19 08:32:00,
2013-07-19 01:37:00,54.1,49.7,29.08,SW,225,1.2,1.2,85,0.00,CLR,OVC,0.00,WeatherDisplay:10.37,2013-07-19 08:37:00,
2013-07-19 01:42:00,54.0,49.6,29.08,SSE,158,1.6,1.6,85,0.00,CLR,OVC,0.00,WeatherDisplay:10.37,2013-07-19 08:42:00,
2013-07-19 01:47:00,53.8,49.7,29.08,West,270,2.3,2.3,86,0.00,CLR,OVC,0.00,WeatherDisplay:10.37,2013-07-19 08:47:00,
2013-07-19 01:52:00,53.8,49.7,29.08,WSW,248,2.3,2.3,86,0.00,CLR,OVC,0.00,WeatherDisplay:10.37,2013-07-19 08:52:00,
2013-07-19 01:57:00,53.8,49.7,29.08,WSW,248,2.3,2.3,86,0.00,CLR,OVC,0.00,WeatherDisplay:10.37,2013-07-19 08:57:00,
2013-07-19 02:02:00,53.6,49.5,29.08,West,270,2.3,2.3,86,0.00,CLR,OVC,0.00,WeatherDisplay:10.37,2013-07-19 09:02:00,
2013-07-19 02:07:00,53.6,49.8,29.08,SW,225,2.3,2.3,87,0.00,CLR,OVC,0.00,WeatherDisplay:10.37,2013-07-19 09:07:00,
2013-07-19 02:12:00,53.4,49.6,29.08,SW,225,2.3,2.3,87,0.00,CLR,OVC,0.00,WeatherDisplay:10.37,2013-07-19 09:12:00,
2013-07-19 02:18:00,53.4,50.0,29.08,SW,225,2.3,2.3,88,0.00,CLR,OVC,0.00,WeatherDisplay:10.37,2013-07-19 09:18:00,
2013-07-19 02:23:00,53.4,50.0,29.08,WSW,248,2.4,2.4,88,0.00,CLR,OVC,0.00,WeatherDisplay:10.37,2013-07-19 09:23:00,
2013-07-19 02:28:00,53.4,50.0,29.08,WSW,248,3.5,3.5,88,0.00,CLR,OVC,0.00,WeatherDisplay:10.37,2013-07-19 09:28:00,
2013-07-19 02:33:00,53.2,49.8,29.08,WSW,248,3.6,3.6,88,0.00,CLR,OVC,0.00,WeatherDisplay:10.37,2013-07-19 09:33:00,
2013-07-19 02:38:00,53.2,50.1,29.09,SW,225,2.3,2.3,89,0.00,CLR,OVC,0.00,WeatherDisplay:10.37,2013-07-19 09:38:00,
2013-07-19 02:43:00,53.2,50.1,29.09,West,270,4.6,4.6,89,0.00,CLR,OVC,0.00,WeatherDisplay:10.37,2013-07-19 09:43:00,
2013-07-19 02:48:00,53.2,50.4,29.09,WSW,248,5.8,5.8,90,0.00,CLR,OVC,0.00,WeatherDisplay:10.37,2013-07-19 09:48:00,
2013-07-19 02:53:00,53.2,50.4,29.09,West,270,4.6,4.6,90,0.00,CLR,OVC,0.00,WeatherDisplay:10.37,2013-07-19 09:53:00,
2013-07-19 02:58:00,53.2,50.4,29.09,West,270,4.7,4.7,90,0.00,CLR,OVC,0.00,WeatherDisplay:10.37,2013-07-19 09:58:00,
2013-07-19 03:03:00,53.2,50.4,29.09,West,270,3.5,3.5,90,0.00,CLR,OVC,0.00,WeatherDisplay:10.37,2013-07-19 10:03:00,
2013-07-19 03:08:00,53.2,50.4,29.08,West,270,3.5,3.5,90,0.00,CLR,OVC,0.00,WeatherDisplay:10.37,2013-07-19 10:08:00,
2013-07-19 03:13:00,53.1,50.2,29.09,WSW,248,2.3,2.3,90,0.00,CLR,OVC,0.00,WeatherDisplay:10.37,2013-07-19 10:13:00,
2013-07-19 03:18:00,53.1,50.2,29.09,West,270,2.3,2.3,90,0.00,CLR,OVC,0.00,WeatherDisplay:10.37,2013-07-19 10:18:00,
2013-07-19 03:23:00,52.9,50.0,29.09,WNW,292,2.3,2.3,90,0.00,CLR,OVC,0.00,WeatherDisplay:10.37,2013-07-19 10:23:00,
2013-07-19 03:28:00,52.9,49.7,29.10,WNW,292,4.6,0.0,89,0.00,CLR,OVC,0.00,WeatherDisplay:10.37,2013-07-19 10:28:00,
2013-07-19 03:33:00,52.9,50.0,29.10,NW,315,4.6,4.6,90,0.00,CLR,OVC,0.00,WeatherDisplay:10.37,2013-07-19 10:33:00,
2013-07-19 03:38:00,53.1,50.2,29.10,NE,45,2.3,2.3,90,0.00,CLR,OVC,0.00,WeatherDisplay:10.37,2013-07-19 10:38:00,
2013-07-19 03:43:00,53.1,50.2,29.10,WSW,248,1.2,1.2,90,0.00,CLR,OVC,0.00,WeatherDisplay:10.37,2013-07-19 10:43:00,
2013-07-19 03:48:00,53.2,50.1,29.09,SW,225,1.2,1.4,89,0.00,CLR,OVC,0.00,WeatherDisplay:10.37,2013-07-19 10:48:00,
2013-07-19 03:53:00,53.2,50.4,29.09,West,270,2.3,2.3,90,0.00,CLR,OVC,0.00,WeatherDisplay:10.37,2013-07-19 10:53:00,
2013-07-19 03:58:00,53.2,50.1,29.09,West,270,3.3,3.3,89,0.00,CLR,OVC,0.00,WeatherDisplay:10.37,2013-07-19 10:58:00,
2013-07-19 04:03:00,53.2,50.1,29.09,SW,225,2.3,2.3,89,0.00,CLR,OVC,0.00,WeatherDisplay:10.37,2013-07-19 11:03:00,
2013-07-19 04:08:00,53.4,50.3,29.09,South,180,1.2,1.2,89,0.00,CLR,OVC,0.00,WeatherDisplay:10.37,2013-07-19 11:08:00,
2013-07-19 04:13:00,53.4,50.3,29.10,West,270,2.3,2.3,89,0.00,CLR,OVC,0.00,WeatherDisplay:10.37,2013-07-19 11:13:00,
2013-07-19 04:18:00,53.6,50.4,29.09,West,270,3.5,3.5,89,0.00,CLR,OVC,0.00,WeatherDisplay:10.37,2013-07-19 11:18:00,
2013-07-19 04:23:00,53.4,50.3,29.10,ESE,112,1.2,1.2,89,0.00,CLR,OVC,0.00,WeatherDisplay:10.37,2013-07-19 11:23:00,
2013-07-19 04:28:00,53.6,50.4,29.10,West,270,2.4,2.4,89,0.00,CLR,OVC,0.00,WeatherDisplay:10.37,2013-07-19 11:28:00,
2013-07-19 04:33:00,53.6,50.4,29.10,SW,225,5.8,5.8,89,0.00,CLR,OVC,0.00,WeatherDisplay:10.37,2013-07-19 11:33:00,
2013-07-19 04:38:00,53.4,50.3,29.10,West,270,2.3,2.3,89,0.00,CLR,OVC,0.00,WeatherDisplay:10.37,2013-07-19 11:38:00,
2013-07-19 04:43:00,53.4,50.3,29.10,WSW,248,2.3,2.3,89,0.00,CLR,OVC,0.00,WeatherDisplay:10.37,2013-07-19 11:43:00,
2013-07-19 04:48:00,53.6,50.4,29.10,North,0,2.3,2.3,89,0.00,CLR,OVC,0.00,WeatherDisplay:10.37,2013-07-19 11:48:00,
2013-07-19 04:53:00,53.6,50.4,29.10,NW,315,3.6,3.6,89,0.00,CLR,OVC,0.00,WeatherDisplay:10.37,2013-07-19 11:53:00,
2013-07-19 04:58:00,53.4,50.3,29.10,SSW,202,2.3,2.3,89,0.00,CLR,OVC,0.00,WeatherDisplay:10.37,2013-07-19 11:58:00,
2013-07-19 05:03:00,53.4,50.3,29.10,SW,225,3.5,3.5,89,0.00,CLR,OVC,0.00,WeatherDisplay:10.37,2013-07-19 12:03:00,
2013-07-19 05:08:00,53.4,50.3,29.10,SW,225,2.3,2.3,89,0.00,CLR,OVC,0.00,WeatherDisplay:10.37,2013-07-19 12:08:00,
2013-07-19 05:13:00,53.2,50.1,29.10,SW,225,2.3,2.3,89,0.00,CLR,OVC,0.00,WeatherDisplay:10.37,2013-07-19 12:13:00,
2013-07-19 05:18:00,53.4,50.0,29.10,SE,135,2.3,2.3,88,0.00,CLR,OVC,0.00,WeatherDisplay:10.37,2013-07-19 12:18:00,
2013-07-19 05:23:00,53.2,50.1,29.10,WSW,248,3.5,3.5,89,0.00,CLR,OVC,0.00,WeatherDisplay:10.37,2013-07-19 12:23:00,
2013-07-19 05:28:00,53.2,50.1,29.10,WSW,248,1.2,2.0,89,0.00,CLR,OVC,0.00,WeatherDisplay:10.37,2013-07-19 12:28:00,
2013-07-19 05:33:00,53.2,50.1,29.10,NNW,338,2.4,2.4,89,0.00,CLR,OVC,0.00,WeatherDisplay:10.37,2013-07-19 12:33:00,
2013-07-19 05:38:00,53.2,50.1,29.10,SSE,158,3.5,3.5,89,0.00,CLR,OVC,0.00,WeatherDisplay:10.37,2013-07-19 12:38:00,
2013-07-19 05:43:00,53.2,50.1,29.10,NW,315,2.4,2.4,89,0.00,CLR,OVC,0.00,WeatherDisplay:10.37,2013-07-19 12:43:00,
2013-07-19 05:48:00,53.2,50.1,29.10,WSW,248,2.3,2.3,89,0.00,CLR,OVC,0.00,WeatherDisplay:10.37,2013-07-19 12:48:00,
2013-07-19 05:53:00,53.2,50.1,29.10,WSW,248,2.3,2.3,89,0.00,CLR,OVC,0.00,WeatherDisplay:10.37,2013-07-19 12:53:00,
2013-07-19 05:58:00,53.1,49.9,29.10,SW,225,4.6,4.6,89,0.00,CLR,OVC,0.00,WeatherDisplay:10.37,2013-07-19 12:58:00,
2013-07-19 06:03:00,53.1,49.9,29.10,SW,225,2.3,2.3,89,0.00,CLR,OVC,0.00,WeatherDisplay:10.37,2013-07-19 13:03:00,
2013-07-19 06:08:00,53.1,49.9,29.10,WNW,292,3.1,3.1,89,0.00,CLR,OVC,0.00,WeatherDisplay:10.37,2013-07-19 13:08:00,
2013-07-19 06:13:00,53.1,49.9,29.10,WSW,248,2.3,2.3,89,0.00,CLR,OVC,0.00,WeatherDisplay:10.37,2013-07-19 13:13:00,
2013-07-19 06:18:00,53.1,49.9,29.10,SW,225,4.6,4.6,89,0.00,CLR,OVC,0.00,WeatherDisplay:10.37,2013-07-19 13:18:00,
2013-07-19 06:23:00,52.9,49.7,29.10,NNE,22,4.6,4.6,89,0.00,CLR,OVC,0.00,WeatherDisplay:10.37,2013-07-19 13:23:00,
2013-07-19 06:26:00,53.1,49.9,29.10,SSW,202,2.3,2.3,89,0.00,CLR,OVC,0.00,WeatherDisplay:10.37,2013-07-19 13:26:00,
2013-07-19 06:31:00,52.9,49.7,29.11,SW,225,3.5,3.5,89,0.00,CLR,OVC,0.00,WeatherDisplay:10.37,2013-07-19 13:31:00,
2013-07-19 06:36:00,52.9,49.7,29.10,WSW,248,2.3,2.3,89,0.00,CLR,OVC,0.00,WeatherDisplay:10.37,2013-07-19 13:36:00,
2013-07-19 06:41:00,52.9,49.7,29.11,West,270,4.6,4.6,89,0.00,CLR,OVC,0.00,WeatherDisplay:10.37,2013-07-19 13:41:00,
2013-07-19 06:46:00,53.1,49.9,29.11,East,90,2.3,2.3,89,0.00,CLR,OVC,0.00,WeatherDisplay:10.37,2013-07-19 13:46:00,
2013-07-19 06:51:00,53.1,49.9,29.11,WSW,248,2.3,2.3,89,0.00,CLR,OVC,0.00,WeatherDisplay:10.37,2013-07-19 13:51:00,
2013-07-19 06:56:00,53.1,49.9,29.11,WSW,248,2.3,2.3,89,0.00,CLR,OVC,0.00,WeatherDisplay:10.37,2013-07-19 13:56:00,
2013-07-19 07:01:00,53.2,50.1,29.11,SW,225,2.3,2.3,89,0.00,CLR,OVC,0.00,WeatherDisplay:10.37,2013-07-19 14:01:00,
2013-07-19 07:06:00,53.2,50.1,29.11,SSE,158,1.6,1.6,89,0.00,CLR,OVC,0.00,WeatherDisplay:10.37,2013-07-19 14:06:00,
2013-07-19 07:11:00,53.6,50.4,29.11,WSW,248,2.4,2.4,89,0.00,CLR,OVC,0.00,WeatherDisplay:10.37,2013-07-19 14:11:00,
2013-07-19 07:16:00,53.6,50.4,29.11,WNW,292,2.3,2.3,89,0.00,CLR,OVC,0.00,WeatherDisplay:10.37,2013-07-19 14:16:00,
2013-07-19 07:21:00,53.6,50.4,29.11,West,270,2.3,2.3,89,0.00,CLR,OVC,0.00,WeatherDisplay:10.37,2013-07-19 14:21:00,
2013-07-19 07:26:00,53.6,50.1,29.11,SW,225,2.3,2.3,88,0.00,CLR,OVC,0.00,WeatherDisplay:10.37,2013-07-19 14:26:00,
2013-07-19 07:31:00,53.8,50.6,29.11,WSW,248,3.5,3.5,89,0.00,CLR,OVC,0.00,WeatherDisplay:10.37,2013-07-19 14:31:00,
2013-07-19 07:36:00,54.0,50.5,29.11,SSW,202,1.6,1.6,88,0.00,CLR,OVC,0.00,WeatherDisplay:10.37,2013-07-19 14:36:00,
2013-07-19 07:41:00,54.0,50.5,29.11,WNW,292,3.5,3.5,88,0.00,CLR,OVC,0.00,WeatherDisplay:10.37,2013-07-19 14:41:00,
2013-07-19 07:46:00,54.0,50.5,29.11,NNW,338,2.3,2.3,88,0.00,CLR,OVC,0.00,WeatherDisplay:10.37,2013-07-19 14:46:00,
2013-07-19 07:51:00,54.0,50.5,29.11,WSW,248,2.3,2.3,88,0.00,CLR,OVC,0.00,WeatherDisplay:10.37,2013-07-19 14:51:00,
2013-07-19 07:56:00,54.1,50.7,29.11,South,180,2.3,2.3,88,0.00,CLR,OVC,0.00,WeatherDisplay:10.37,2013-07-19 14:56:00,
2013-07-19 08:01:00,54.3,50.8,29.11,WSW,248,2.3,2.3,88,0.00,CLR,OVC,0.00,WeatherDisplay:10.37,2013-07-19 15:01:00,
2013-07-19 08:06:00,54.5,50.7,29.11,SW,225,2.3,2.3,87,0.00,CLR,OVC,0.00,WeatherDisplay:10.37,2013-07-19 15:06:00,
2013-07-19 08:12:00,54.5,50.7,29.11,SW,225,3.5,3.5,87,0.00,CLR,OVC,0.00,WeatherDisplay:10.37,2013-07-19 15:12:00,
2013-07-19 08:17:00,54.7,50.9,29.11,SW,225,2.3,2.3,87,0.00,CLR,OVC,0.00,WeatherDisplay:10.37,2013-07-19 15:17:00,
2013-07-19 08:22:00,54.7,50.9,29.11,WSW,248,2.3,2.4,87,0.00,CLR,OVC,0.00,WeatherDisplay:10.37,2013-07-19 15:22:00,
2013-07-19 08:27:00,54.9,51.1,29.11,West,270,3.5,3.5,87,0.00,CLR,OVC,0.00,WeatherDisplay:10.37,2013-07-19 15:27:00,
2013-07-19 08:32:00,54.7,50.6,29.11,SE,135,3.5,3.5,86,0.00,CLR,OVC,0.00,WeatherDisplay:10.37,2013-07-19 15:32:00,
2013-07-19 08:37:00,55.0,51.2,29.10,WNW,292,4.6,4.6,87,0.00,CLR,OVC,0.00,WeatherDisplay:10.37,2013-07-19 15:37:00,
2013-07-19 08:42:00,55.2,51.1,29.10,West,270,2.3,2.4,86,0.00,CLR,OVC,0.00,WeatherDisplay:10.37,2013-07-19 15:42:00,
2013-07-19 08:47:00,55.4,51.3,29.11,WSW,248,1.2,1.2,86,0.00,CLR,OVC,0.00,WeatherDisplay:10.37,2013-07-19 15:47:00,
2013-07-19 08:52:00,55.6,51.5,29.11,WSW,248,4.6,4.6,86,0.00,CLR,OVC,0.00,WeatherDisplay:10.37,2013-07-19 15:52:00,
2013-07-19 08:57:00,55.8,51.6,29.10,WSW,248,2.3,2.3,86,0.00,CLR,OVC,0.00,WeatherDisplay:10.37,2013-07-19 15:57:00,
2013-07-19 09:02:00,55.9,51.5,29.10,SW,225,2.3,2.3,85,0.00,CLR,OVC,0.00,WeatherDisplay:10.37,2013-07-19 16:02:00,
2013-07-19 09:07:00,56.3,51.8,29.11,SW,225,3.3,3.3,85,0.00,CLR,OVC,0.00,WeatherDisplay:10.37,2013-07-19 16:07:00,
2013-07-19 09:12:00,56.5,52.0,29.10,West,270,2.3,3.8,85,0.00,CLR,OVC,0.00,WeatherDisplay:10.37,2013-07-19 16:12:00,
2013-07-19 09:17:00,56.7,51.9,29.10,SW,225,3.5,3.5,84,0.00,CLR,OVC,0.00,WeatherDisplay:10.37,2013-07-19 16:17:00,
2013-07-19 09:22:00,57.0,52.6,29.10,SW,225,2.3,2.3,85,0.00,CLR,OVC,0.00,WeatherDisplay:10.37,2013-07-19 16:22:00,
2013-07-19 09:27:00,57.2,52.4,29.10,West,270,2.3,2.3,84,0.00,CLR,OVC,0.00,WeatherDisplay:10.37,2013-07-19 16:27:00,
2013-07-19 09:32:00,57.6,52.4,29.10,SW,225,4.6,4.6,83,0.00,CLR,OVC,0.00,WeatherDisplay:10.37,2013-07-19 16:32:00,
2013-07-19 09:37:00,57.9,52.8,29.10,WSW,248,4.6,4.6,83,0.00,CLR,OVC,0.00,WeatherDisplay:10.37,2013-07-19 16:37:00,
2013-07-19 09:42:00,58.5,53.3,29.10,SW,225,1.4,1.4,83,0.00,CLR,OVC,0.00,WeatherDisplay:10.37,2013-07-19 16:42:00,
2013-07-19 09:47:00,59.0,53.2,29.10,WNW,292,2.3,2.3,81,0.00,CLR,OVC,0.00,WeatherDisplay:10.37,2013-07-19 16:47:00,
2013-07-19 09:52:00,59.4,53.5,29.10,SW,225,2.3,2.3,81,0.00,CLR,OVC,0.00,WeatherDisplay:10.37,2013-07-19 16:52:00,
2013-07-19 09:57:00,60.1,53.9,29.10,SSW,202,2.3,2.3,80,0.00,CLR,OVC,0.00,WeatherDisplay:10.37,2013-07-19 16:57:00,
2013-07-19 10:02:00,60.6,53.4,29.10,NNW,338,2.3,4.3,77,0.00,CLR,OVC,0.00,WeatherDisplay:10.37,2013-07-19 17:02:00,
2013-07-19 10:07:00,61.2,53.9,29.10,WNW,292,4.6,4.6,77,0.00,CLR,OVC,0.00,WeatherDisplay:10.37,2013-07-19 17:07:00,
2013-07-19 10:12:00,63.0,54.5,29.10,WNW,292,4.6,4.6,74,0.00,CLR,OVC,0.00,WeatherDisplay:10.37,2013-07-19 17:12:00,
2013-07-19 10:17:00,64.0,55.6,29.10,WSW,248,4.0,4.0,74,0.00,CLR,OVC,0.00,WeatherDisplay:10.37,2013-07-19 17:17:00,
2013-07-19 10:22:00,64.6,55.3,29.10,SSE,158,2.3,2.3,72,0.00,CLR,OVC,0.00,WeatherDisplay:10.37,2013-07-19 17:22:00,
2013-07-19 10:27:00,65.7,56.0,29.10,West,270,2.3,2.3,71,0.00,CLR,OVC,0.00,WeatherDisplay:10.37,2013-07-19 17:27:00,
2013-07-19 10:32:00,66.6,56.1,29.10,West,270,3.1,3.1,69,0.00,CLR,OVC,0.00,WeatherDisplay:10.37,2013-07-19 17:32:00,
2013-07-19 10:37:00,66.9,56.0,29.10,West,270,2.3,2.3,68,0.00,CLR,OVC,0.00,WeatherDisplay:10.37,2013-07-19 17:37:00,
2013-07-19 10:42:00,67.6,55.5,29.10,NW,315,3.5,3.5,65,0.00,CLR,OVC,0.00,WeatherDisplay:10.37,2013-07-19 17:42:00,
2013-07-19 10:47:00,67.8,55.6,29.10,ESE,112,2.3,2.3,65,0.00,CLR,OVC,0.00,WeatherDisplay:10.37,2013-07-19 17:47:00,
2013-07-19 10:52:00,68.0,54.9,29.10,West,270,5.8,5.8,63,0.00,CLR,OVC,0.00,WeatherDisplay:10.37,2013-07-19 17:52:00,
2013-07-19 10:57:00,67.3,55.1,29.10,SW,225,4.6,4.6,65,0.00,CLR,OVC,0.00,WeatherDisplay:10.37,2013-07-19 17:57:00,
2013-07-19 11:02:00,67.3,55.1,29.10,WSW,248,4.6,4.6,65,0.00,CLR,OVC,0.00,WeatherDisplay:10.37,2013-07-19 18:02:00,
2013-07-19 11:07:00,66.9,54.8,29.10,WSW,248,3.5,3.5,65,0.00,CLR,OVC,0.00,WeatherDisplay:10.37,2013-07-19 18:07:00,
2013-07-19 11:12:00,66.9,54.8,29.10,NW,315,4.6,5.4,65,0.00,CLR,OVC,0.00,WeatherDisplay:10.37,2013-07-19 18:12:00,
2013-07-19 11:17:00,66.6,54.4,29.10,SW,225,2.3,2.3,65,0.00,CLR,OVC,0.00,WeatherDisplay:10.37,2013-07-19 18:17:00,
2013-07-19 11:22:00,66.6,54.4,29.09,SSW,202,4.6,4.6,65,0.00,CLR,OVC,0.00,WeatherDisplay:10.37,2013-07-19 18:22:00,
2013-07-19 11:27:00,66.6,54.4,29.10,SW,225,5.8,5.8,65,0.00,CLR,OVC,0.00,WeatherDisplay:10.37,2013-07-19 18:27:00,
2013-07-19 11:32:00,66.6,54.8,29.10,WSW,248,4.6,4.6,66,0.00,CLR,OVC,0.00,WeatherDisplay:10.37,2013-07-19 18:32:00,
2013-07-19 11:37:00,66.7,54.6,29.09,NW,315,8.1,8.1,65,0.00,CLR,OVC,0.00,WeatherDisplay:10.37,2013-07-19 18:37:00,
2013-07-19 11:42:00,66.7,55.0,29.09,NW,315,6.0,6.0,66,0.00,CLR,OVC,0.00,WeatherDisplay:10.37,2013-07-19 18:42:00,
2013-07-19 11:47:00,66.9,55.2,29.09,West,270,4.6,4.6,66,0.00,CLR,OVC,0.00,WeatherDisplay:10.37,2013-07-19 18:47:00,
2013-07-19 11:52:00,67.3,55.5,29.09,West,270,6.9,6.9,66,0.00,CLR,OVC,0.00,WeatherDisplay:10.37,2013-07-19 18:52:00,
2013-07-19 11:57:00,67.3,55.9,29.09,West,270,4.6,4.6,67,0.00,CLR,OVC,0.00,WeatherDisplay:10.37,2013-07-19 18:57:00,
2013-07-19 12:02:00,68.4,56.1,29.09,WSW,248,4.6,4.6,65,0.00,CLR,OVC,0.00,WeatherDisplay:10.37,2013-07-19 19:02:00,
2013-07-19 12:07:00,68.4,56.1,29.09,WSW,248,5.8,5.8,65,0.00,CLR,OVC,0.00,WeatherDisplay:10.37,2013-07-19 19:07:00,
2013-07-19 12:12:00,68.0,55.8,29.09,NW,315,5.8,5.8,65,0.00,CLR,OVC,0.00,WeatherDisplay:10.37,2013-07-19 19:12:00,
2013-07-19 12:17:00,68.4,56.1,29.08,West,270,5.2,5.2,65,0.00,CLR,OVC,0.00,WeatherDisplay:10.37,2013-07-19 19:17:00,
2013-07-19 12:22:00,68.9,56.6,29.08,SW,225,4.6,4.6,65,0.00,CLR,OVC,0.00,WeatherDisplay:10.37,2013-07-19 19:22:00,
2013-07-19 12:27:00,69.8,56.6,29.08,WNW,292,6.7,6.7,63,0.00,CLR,OVC,0.00,WeatherDisplay:10.37,2013-07-19 19:27:00,
2013-07-19 12:32:00,70.3,57.1,29.08,SSW,202,3.5,3.5,63,0.00,CLR,OVC,0.00,WeatherDisplay:10.37,2013-07-19 19:32:00,
2013-07-19 12:38:00,70.9,57.7,29.08,WSW,248,5.4,5.4,63,0.00,CLR,OVC,0.00,WeatherDisplay:10.37,2013-07-19 19:38:00,
2013-07-19 12:43:00,70.9,57.7,29.08,WSW,248,6.9,6.9,63,0.00,CLR,OVC,0.00,WeatherDisplay:10.37,2013-07-19 19:43:00,
2013-07-19 12:48:00,71.2,58.0,29.08,SW,225,4.6,4.6,63,0.00,CLR,OVC,0.00,WeatherDisplay:10.37,2013-07-19 19:48:00,
2013-07-19 12:53:00,71.4,58.2,29.07,WSW,248,4.6,4.6,63,0.00,CLR,OVC,0.00,WeatherDisplay:10.37,2013-07-19 19:53:00,
2013-07-19 12:58:00,71.6,57.9,29.07,WSW,248,5.8,5.8,62,0.00,CLR,OVC,0.00,WeatherDisplay:10.37,2013-07-19 19:58:00,
2013-07-19 13:03:00,71.4,57.7,29.07,WSW,248,6.9,6.9,62,0.00,CLR,OVC,0.00,WeatherDisplay:10.37,2013-07-19 20:03:00,
2013-07-19 13:08:00,71.4,57.7,29.07,West,270,5.9,5.9,62,0.00,CLR,OVC,0.00,WeatherDisplay:10.37,2013-07-19 20:08:00,
2013-07-19 13:13:00,71.4,58.2,29.06,SW,225,6.9,6.9,63,0.00,CLR,OVC,0.00,WeatherDisplay:10.37,2013-07-19 20:13:00,
2013-07-19 13:18:00,72.0,58.2,29.07,West,270,8.1,8.1,62,0.00,CLR,OVC,0.00,WeatherDisplay:10.37,2013-07-19 20:18:00,
2013-07-19 13:23:00,72.7,59.4,29.06,SW,225,4.6,5.4,63,0.00,CLR,OVC,0.00,WeatherDisplay:10.37,2013-07-19 20:23:00,
2013-07-19 13:28:00,73.0,58.8,29.06,WSW,248,6.9,6.9,61,0.00,CLR,OVC,0.00,WeatherDisplay:10.37,2013-07-19 20:28:00,
2013-07-19 13:33:00,72.7,58.5,29.06,West,270,5.8,5.8,61,0.00,CLR,OVC,0.00,WeatherDisplay:10.37,2013-07-19 20:33:00,
2013-07-19 13:38:00,72.7,58.5,29.06,West,270,6.7,6.7,61,0.00,CLR,OVC,0.00,WeatherDisplay:10.37,2013-07-19 20:38:00,
2013-07-19 13:43:00,73.0,59.2,29.05,South,180,4.6,4.6,62,0.00,CLR,OVC,0.00,WeatherDisplay:10.37,2013-07-19 20:43:00,
2013-07-19 13:48:00,74.1,59.8,29.05,WSW,248,6.9,6.9,61,0.00,CLR,OVC,0.00,WeatherDisplay:10.37,2013-07-19 20:48:00,
2013-07-19 13:53:00,74.5,59.2,29.05,WSW,248,6.9,6.9,59,0.00,CLR,OVC,0.00,WeatherDisplay:10.37,2013-07-19 20:53:00,
2013-07-19 13:58:00,74.5,59.7,29.05,WSW,248,6.9,6.9,60,0.00,CLR,OVC,0.00,WeatherDisplay:10.37,2013-07-19 20:58:00,
2013-07-19 14:03:00,75.2,59.9,29.05,SW,225,4.6,4.6,59,0.00,CLR,OVC,0.00,WeatherDisplay:10.37,2013-07-19 21:03:00,
2013-07-19 14:08:00,75.6,60.2,29.05,SW,225,4.6,5.9,59,0.00,CLR,OVC,0.00,WeatherDisplay:10.37,2013-07-19 21:08:00,
2013-07-19 14:13:00,75.4,60.1,29.05,SW,225,5.8,5.8,59,0.00,CLR,OVC,0.00,WeatherDisplay:10.37,2013-07-19 21:13:00,
2013-07-19 14:18:00,75.9,60.1,29.05,SW,225,4.6,4.6,58,0.00,CLR,OVC,0.00,WeatherDisplay:10.37,2013-07-19 21:18:00,
2013-07-19 14:23:00,76.1,59.8,29.05,WSW,248,6.9,6.9,57,0.00,CLR,OVC,0.00,WeatherDisplay:10.37,2013-07-19 21:23:00,
2013-07-19 14:28:00,76.3,60.4,29.04,WNW,292,4.6,4.6,58,0.00,CLR,OVC,0.00,WeatherDisplay:10.37,2013-07-19 21:28:00,
2013-07-19 14:33:00,76.3,60.4,29.04,North,0,4.6,4.6,58,0.00,CLR,OVC,0.00,WeatherDisplay:10.37,2013-07-19 21:33:00,
2013-07-19 14:38:00,76.5,60.1,29.04,WSW,248,5.8,5.8,57,0.00,CLR,OVC,0.00,WeatherDisplay:10.37,2013-07-19 21:38:00,
2013-07-19 14:43:00,76.6,60.8,29.04,South,180,4.6,4.6,58,0.00,CLR,OVC,0.00,WeatherDisplay:10.37,2013-07-19 21:43:00,
2013-07-19 14:48:00,77.5,61.6,29.04,WSW,248,1.8,1.8,58,0.00,CLR,OVC,0.00,WeatherDisplay:10.37,2013-07-19 21:48:00,
2013-07-19 14:53:00,78.6,61.1,29.04,SW,225,4.6,4.6,55,0.00,CLR,OVC,0.00,WeatherDisplay:10.37,2013-07-19 21:53:00,
2013-07-19 14:58:00,79.7,62.1,29.03,SSW,202,2.4,2.4,55,0.00,CLR,OVC,0.00,WeatherDisplay:10.37,2013-07-19 21:58:00,
2013-07-19 15:03:00,80.8,62.1,29.03,SSW,202,5.8,5.8,53,0.00,CLR,OVC,0.00,WeatherDisplay:10.37,2013-07-19 22:03:00,
2013-07-19 15:08:00,80.4,61.7,29.03,WSW,248,4.7,4.7,53,0.00,CLR,OVC,0.00,WeatherDisplay:10.37,2013-07-19 22:08:00,
2013-07-19 15:13:00,81.0,61.7,29.03,SE,135,6.9,6.9,52,0.00,CLR,OVC,0.00,WeatherDisplay:10.37,2013-07-19 22:13:00,
2013-07-19 15:18:00,81.1,61.8,29.03,NW,315,4.6,4.6,52,0.00,CLR,OVC,0.00,WeatherDisplay:10.37,2013-07-19 22:18:00,
2013-07-19 15:23:00,81.3,61.5,29.03,WNW,292,5.8,5.8,51,0.00,CLR,OVC,0.00,WeatherDisplay:10.37,2013-07-19 22:23:00,
2013-07-19 15:28:00,81.3,61.5,29.03,SW,225,4.6,4.6,51,0.00,CLR,OVC,0.00,WeatherDisplay:10.37,2013-07-19 22:28:00,
2013-07-19 15:33:00,81.5,61.6,29.03,SSW,202,4.6,4.6,51,0.00,CLR,OVC,0.00,WeatherDisplay:10.37,2013-07-19 22:33:00,
2013-07-19 15:38:00,82.0,62.7,29.03,South,180,4.6,4.6,52,0.00,CLR,OVC,0.00,WeatherDisplay:10.37,2013-07-19 22:38:00,
2013-07-19 15:43:00,82.9,62.4,29.02,SE,135,2.3,2.3,50,0.00,CLR,OVC,0.00,WeatherDisplay:10.37,2013-07-19 22:43:00,
2013-07-19 15:48:00,82.8,61.6,29.02,WSW,248,4.6,4.6,49,0.00,CLR,OVC,0.00,WeatherDisplay:10.37,2013-07-19 22:48:00,
2013-07-19 15:53:00,82.8,61.6,29.02,WSW,248,5.4,5.4,49,0.00,CLR,OVC,0.00,WeatherDisplay:10.37,2013-07-19 22:53:00,
2013-07-19 15:58:00,82.9,61.8,29.02,WSW,248,5.2,5.2,49,0.00,CLR,OVC,0.00,WeatherDisplay:10.37,2013-07-19 22:58:00,
2013-07-19 16:03:00,82.8,62.2,29.02,SSE,158,3.5,3.5,50,0.00,CLR,OVC,0.00,WeatherDisplay:10.37,2013-07-19 23:03:00,
2013-07-19 16:08:00,83.3,62.1,29.02,SW,225,4.6,4.6,49,0.00,CLR,OVC,0.00,WeatherDisplay:10.37,2013-07-19 23:08:00,
2013-07-19 16:13:00,84.0,62.2,29.02,WNW,292,4.6,4.6,48,0.00,CLR,OVC,0.00,WeatherDisplay:10.37,2013-07-19 23:13:00,
2013-07-19 16:18:00,84.4,62.5,29.02,WNW,292,4.6,6.2,48,0.00,CLR,OVC,0.00,WeatherDisplay:10.37,2013-07-19 23:18:00,
2013-07-19 16:23:00,84.9,62.4,29.02,WSW,248,3.5,3.5,47,0.00,CLR,OVC,0.00,WeatherDisplay:10.37,2013-07-19 23:23:00,
2013-07-19 16:28:00,84.9,61.8,29.02,West,270,3.5,3.5,46,0.00,CLR,OVC,0.00,WeatherDisplay:10.37,2013-07-19 23:28:00,
2013-07-19 16:33:00,85.3,62.8,29.02,WSW,248,4.6,4.6,47,0.00,CLR,OVC,0.00,WeatherDisplay:10.37,2013-07-19 23:33:00,
2013-07-19 16:38:00,85.3,63.4,29.02,SSW,202,3.5,3.5,48,0.00,CLR,OVC,0.00,WeatherDisplay:10.37,2013-07-19 23:38:00,
2013-07-19 16:43:00,86.0,63.4,29.02,WSW,248,4.6,4.6,47,0.00,CLR,OVC,0.00,WeatherDisplay:10.37,2013-07-19 23:43:00,
2013-07-19 16:48:00,85.6,62.5,29.01,WSW,248,4.6,4.6,46,0.00,CLR,OVC,0.00,WeatherDisplay:10.37,2013-07-19 23:48:00,
2013-07-19 16:53:00,85.8,62.6,29.01,WSW,248,4.6,4.6,46,0.00,CLR,OVC,0.00,WeatherDisplay:10.37,2013-07-19 23:53:00,
2013-07-19 16:58:00,85.6,62.5,29.01,West,270,3.6,3.6,46,0.00,CLR,OVC,0.00,WeatherDisplay:10.37,2013-07-19 23:58:00,
2013-07-19 17:03:00,85.6,62.5,29.01,West,270,3.5,3.5,46,0.00,CLR,OVC,0.00,WeatherDisplay:10.37,2013-07-20 00:03:00,
2013-07-19 17:08:00,85.3,62.8,29.01,SSW,202,4.6,4.6,47,0.00,CLR,OVC,0.00,WeatherDisplay:10.37,2013-07-20 00:08:00,
2013-07-19 17:13:00,86.0,62.8,29.01,WNW,292,3.8,3.8,46,0.00,CLR,OVC,0.00,WeatherDisplay:10.37,2013-07-20 00:13:00,
2013-07-19 17:18:00,85.8,62.6,29.01,SW,225,3.5,3.5,46,0.00,CLR,OVC,0.00,WeatherDisplay:10.37,2013-07-20 00:18:00,
2013-07-19 17:23:00,86.0,62.2,29.01,SE,135,5.8,5.8,45,0.00,CLR,OVC,0.00,WeatherDisplay:10.37,2013-07-20 00:23:00,
2013-07-19 17:28:00,85.3,62.2,29.00,North,0,2.3,2.4,46,0.00,CLR,OVC,0.00,WeatherDisplay:10.37,2013-07-20 00:28:00,
2013-07-19 17:33:00,86.2,63.0,29.00,SW,225,2.4,2.4,46,0.00,CLR,OVC,0.00,WeatherDisplay:10.37,2013-07-20 00:33:00,
2013-07-19 17:38:00,86.5,61.4,29.00,West,270,8.1,8.1,43,0.00,CLR,OVC,0.00,WeatherDisplay:10.37,2013-07-20 00:38:00,
2013-07-19 17:43:00,86.2,62.3,29.00,SSW,202,4.6,4.6,45,0.00,CLR,OVC,0.00,WeatherDisplay:10.37,2013-07-20 00:43:00,
2013-07-19 17:48:00,86.0,62.2,29.00,SSE,158,3.5,3.5,45,0.00,CLR,OVC,0.00,WeatherDisplay:10.37,2013-07-20 00:48:00,
2013-07-19 17:53:00,86.4,62.5,29.00,WSW,248,3.8,3.8,45,0.00,CLR,OVC,0.00,WeatherDisplay:10.37,2013-07-20 00:53:00,
2013-07-19 17:58:00,86.4,61.9,29.00,West,270,3.5,3.5,44,0.00,CLR,OVC,0.00,WeatherDisplay:10.37,2013-07-20 00:58:00,
2013-07-19 18:03:00,86.4,62.5,29.00,WSW,248,3.5,3.5,45,0.00,CLR,OVC,0.00,WeatherDisplay:10.37,2013-07-20 01:03:00,
2013-07-19 18:08:00,86.4,62.5,29.00,South,180,2.3,2.3,45,0.00,CLR,OVC,0.00,WeatherDisplay:10.37,2013-07-20 01:08:00,
2013-07-19 18:13:00,86.7,62.2,29.00,West,270,4.6,4.6,44,0.00,CLR,OVC,0.00,WeatherDisplay:10.37,2013-07-20 01:13:00,
2013-07-19 18:18:00,86.7,62.2,29.00,SSE,158,3.5,3.5,44,0.00,CLR,OVC,0.00,WeatherDisplay:10.37,2013-07-20 01:18:00,
2013-07-19 18:24:00,86.2,61.1,29.00,SE,135,3.5,3.5,43,0.00,CLR,OVC,0.00,WeatherDisplay:10.37,2013-07-20 01:24:00,
2013-07-19 18:29:00,85.3,60.9,29.00,SW,225,5.8,5.8,44,0.00,CLR,OVC,0.00,WeatherDisplay:10.37,2013-07-20 01:29:00,
2013-07-19 18:34:00,85.1,60.1,29.00,WSW,248,3.5,3.5,43,0.00,CLR,OVC,0.00,WeatherDisplay:10.37,2013-07-20 01:34:00,
2013-07-19 18:39:00,84.6,60.2,29.00,WSW,248,3.5,3.5,44,0.00,CLR,OVC,0.00,WeatherDisplay:10.37,2013-07-20 01:39:00,
2013-07-19 18:44:00,83.8,59.6,29.00,West,270,7.8,7.8,44,0.00,CLR,OVC,0.00,WeatherDisplay:10.37,2013-07-20 01:44:00,
2013-07-19 18:49:00,82.4,58.9,28.99,WSW,248,4.6,4.6,45,0.00,CLR,OVC,0.00,WeatherDisplay:10.37,2013-07-20 01:49:00,
2013-07-19 18:54:00,81.7,59.5,28.99,SW,225,3.5,3.5,47,0.00,CLR,OVC,0.00,WeatherDisplay:10.37,2013-07-20 01:54:00,
2013-07-19 18:59:00,81.9,59.1,28.99,SW,225,3.5,3.5,46,0.00,CLR,OVC,0.00,WeatherDisplay:10.37,2013-07-20 01:59:00,
2013-07-19 19:04:00,82.4,59.5,28.99,SSE,158,3.5,3.5,46,0.00,CLR,OVC,0.00,WeatherDisplay:10.37,2013-07-20 02:04:00,
2013-07-19 19:09:00,82.8,59.9,28.99,SE,135,2.3,2.4,46,0.00,CLR,OVC,0.00,WeatherDisplay:10.37,2013-07-20 02:09:00,
2013-07-19 19:14:00,82.4,59.5,28.99,South,180,4.6,4.6,46,0.00,CLR,OVC,0.00,WeatherDisplay:10.37,2013-07-20 02:14:00,
2013-07-19 19:19:00,81.3,58.6,28.99,South,180,6.9,6.9,46,0.00,CLR,OVC,0.00,WeatherDisplay:10.37,2013-07-20 02:19:00,
2013-07-19 19:24:00,80.6,58.5,28.99,SE,135,3.5,3.5,47,0.00,CLR,OVC,0.00,WeatherDisplay:10.37,2013-07-20 02:24:00,
2013-07-19 19:29:00,79.9,58.4,29.00,SE,135,3.5,3.5,48,0.00,CLR,OVC,0.00,WeatherDisplay:10.37,2013-07-20 02:29:00,
2013-07-19 19:34:00,79.0,58.2,28.99,SSE,158,2.4,2.4,49,0.00,CLR,OVC,0.00,WeatherDisplay:10.37,2013-07-20 02:34:00,
2013-07-19 19:39:00,78.3,57.5,28.99,SSW,202,5.8,5.8,49,0.00,CLR,OVC,0.00,WeatherDisplay:10.37,2013-07-20 02:39:00,
2013-07-19 19:44:00,77.5,57.4,29.00,SSE,158,3.5,3.5,50,0.00,CLR,OVC,0.00,WeatherDisplay:10.37,2013-07-20 02:44:00,
2013-07-19 19:49:00,77.4,57.3,28.99,WSW,248,2.3,2.3,50,0.00,CLR,OVC,0.00,WeatherDisplay:10.37,2013-07-20 02:49:00,
2013-07-19 19:54:00,77.0,57.5,29.00,SSE,158,4.6,4.6,51,0.00,CLR,OVC,0.00,WeatherDisplay:10.37,2013-07-20 02:54:00,
2013-07-19 19:59:00,76.3,56.8,29.00,SE,135,2.3,2.3,51,0.00,CLR,OVC,0.00,WeatherDisplay:10.37,2013-07-20 02:59:00,
2013-07-19 20:04:00,75.2,56.4,29.00,SE,135,2.3,2.3,52,0.00,CLR,OVC,0.00,WeatherDisplay:10.37,2013-07-20 03:04:00,
2013-07-19 20:09:00,74.1,56.4,29.00,West,270,4.6,4.6,54,0.00,CLR,OVC,0.00,WeatherDisplay:10.37,2013-07-20 03:09:00,
2013-07-19 20:14:00,73.0,55.9,29.00,SSE,158,3.5,3.5,55,0.00,CLR,OVC,0.00,WeatherDisplay:10.37,2013-07-20 03:14:00,
2013-07-19 20:19:00,72.0,55.9,29.00,SSE,158,4.9,4.9,57,0.00,CLR,OVC,0.00,WeatherDisplay:10.37,2013-07-20 03:19:00,
2013-07-19 20:24:00,70.9,55.8,29.00,NW,315,5.8,5.8,59,0.00,CLR,OVC,0.00,WeatherDisplay:10.37,2013-07-20 03:24:00,
2013-07-19 20:29:00,69.4,54.5,29.00,SSW,202,3.5,3.5,59,0.00,CLR,OVC,0.00,WeatherDisplay:10.37,2013-07-20 03:29:00,
2013-07-19 20:34:00,68.0,54.0,29.00,SSW,202,4.6,4.6,61,0.00,CLR,OVC,0.00,WeatherDisplay:10.37,2013-07-20 03:34:00,
2013-07-19 20:39:00,66.6,54.0,29.00,South,180,3.5,3.5,64,0.00,CLR,OVC,0.00,WeatherDisplay:10.37,2013-07-20 03:39:00,
2013-07-19 20:44:00,65.8,53.7,29.00,ESE,112,2.3,2.3,65,0.00,CLR,OVC,0.00,WeatherDisplay:10.37,2013-07-20 03:44:00,
2013-07-19 20:49:00,64.9,53.3,29.00,WSW,248,2.3,2.3,66,0.00,CLR,OVC,0.00,WeatherDisplay:10.37,2013-07-20 03:49:00,
2013-07-19 20:54:00,64.0,53.7,29.00,WSW,248,2.9,2.9,69,0.00,CLR,OVC,0.00,WeatherDisplay:10.37,2013-07-20 03:54:00,
2013-07-19 20:59:00,63.1,53.2,29.00,East,90,2.9,2.9,70,0.00,CLR,OVC,0.00,WeatherDisplay:10.37,2013-07-20 03:59:00,
2013-07-19 21:01:00,63.0,53.0,29.00,East,90,2.3,2.3,70,0.00,CLR,OVC,0.00,WeatherDisplay:10.37,2013-07-20 04:01:00,
2013-07-19 21:06:00,62.2,53.1,29.01,SW,225,3.5,3.5,72,0.00,CLR,OVC,0.00,WeatherDisplay:10.37,2013-07-20 04:06:00,
2013-07-19 21:11:00,61.5,52.4,29.01,SW,225,4.6,4.6,72,0.00,CLR,OVC,0.00,WeatherDisplay:10.37,2013-07-20 04:11:00,
2013-07-19 21:16:00,61.2,52.4,29.01,SE,135,2.4,2.4,73,0.00,CLR,OVC,0.00,WeatherDisplay:10.37,2013-07-20 04:16:00,
2013-07-19 21:21:00,60.8,52.8,29.02,SW,225,2.3,2.3,75,0.00,CLR,OVC,0.00,WeatherDisplay:10.37,2013-07-20 04:21:00,
2013-07-19 21:26:00,60.4,52.8,29.02,WSW,248,5.8,5.8,76,0.00,CLR,OVC,0.00,WeatherDisplay:10.37,2013-07-20 04:26:00,
2013-07-19 21:31:00,60.1,52.5,29.02,West,270,2.3,2.3,76,0.00,CLR,OVC,0.00,WeatherDisplay:10.37,2013-07-20 04:31:00,
2013-07-19 21:36:00,59.7,52.1,29.02,NW,315,3.5,3.5,76,0.00,CLR,OVC,0.00,WeatherDisplay:10.37,2013-07-20 04:36:00,
2013-07-19 21:41:00,59.4,51.8,29.03,ESE,112,2.3,2.3,76,0.00,CLR,OVC,0.00,WeatherDisplay:10.37,2013-07-20 04:41:00,
2013-07-19 21:46:00,59.0,52.1,29.02,East,90,2.3,2.3,78,0.00,CLR,OVC,0.00,WeatherDisplay:10.37,2013-07-20 04:46:00,
2013-07-19 21:51:00,58.6,52.1,29.02,ESE,112,3.6,3.6,79,0.00,CLR,OVC,0.00,WeatherDisplay:10.37,2013-07-20 04:51:00,
2013-07-19 21:56:00,58.5,52.0,29.03,ESE,112,3.5,3.5,79,0.00,CLR,OVC,0.00,WeatherDisplay:10.37,2013-07-20 04:56:00,
2013-07-19 22:01:00,58.1,52.0,29.03,South,180,3.5,3.5,80,0.00,CLR,OVC,0.00,WeatherDisplay:10.37,2013-07-20 05:01:00,
2013-07-19 22:06:00,57.9,51.8,29.03,South,180,3.5,3.5,80,0.00,CLR,OVC,0.00,WeatherDisplay:10.37,2013-07-20 05:06:00,
2013-07-19 22:11:00,57.6,51.8,29.03,SE,135,4.6,4.6,81,0.00,CLR,OVC,0.00,WeatherDisplay:10.37,2013-07-20 05:11:00,
2013-07-19 22:16:00,57.2,51.4,29.03,WSW,248,2.4,2.4,81,0.00,CLR,OVC,0.00,WeatherDisplay:10.37,2013-07-20 05:16:00,
2013-07-19 22:21:00,57.0,51.2,29.03,SE,135,2.3,2.3,81,0.00,CLR,OVC,0.00,WeatherDisplay:10.37,2013-07-20 05:21:00,
2013-07-19 22:26:00,56.8,51.7,29.03,SSW,202,3.5,3.5,83,0.00,CLR,OVC,0.00,WeatherDisplay:10.37,2013-07-20 05:26:00,
2013-07-19 22:31:00,56.5,51.4,29.03,SSW,202,3.5,3.5,83,0.00,CLR,OVC,0.00,WeatherDisplay:10.37,2013-07-20 05:31:00,
2013-07-19 22:36:00,56.3,50.9,29.03,WSW,248,3.5,3.5,82,0.00,CLR,OVC,0.00,WeatherDisplay:10.37,2013-07-20 05:36:00,
2013-07-19 22:41:00,56.1,50.7,29.03,West,270,2.4,2.4,82,0.00,CLR,OVC,0.00,WeatherDisplay:10.37,2013-07-20 05:41:00,
2013-07-19 22:46:00,55.9,50.9,29.03,SW,225,2.3,2.3,83,0.00,CLR,OVC,0.00,WeatherDisplay:10.37,2013-07-20 05:46:00,
2013-07-19 22:51:00,55.8,51.0,29.03,SW,225,3.5,3.5,84,0.00,CLR,OVC,0.00,WeatherDisplay:10.37,2013-07-20 05:51:00,
2013-07-19 22:56:00,55.6,50.8,29.03,SW,225,2.3,2.3,84,0.00,CLR,OVC,0.00,WeatherDisplay:10.37,2013-07-20 05:56:00,
2013-07-19 23:01:00,55.4,51.0,29.03,SSW,202,4.6,4.6,85,0.00,CLR,OVC,0.00,WeatherDisplay:10.37,2013-07-20 06:01:00,
2013-07-19 23:06:00,55.4,51.0,29.03,NW,315,4.6,4.6,85,0.00,CLR,OVC,0.00,WeatherDisplay:10.37,2013-07-20 06:06:00,
2013-07-19 23:11:00,55.4,51.0,29.03,WNW,292,4.6,4.6,85,0.00,CLR,OVC,0.00,WeatherDisplay:10.37,2013-07-20 06:11:00,
2013-07-19 23:16:00,55.4,50.6,29.03,ESE,112,2.3,2.3,84,0.00,CLR,OVC,0.00,WeatherDisplay:10.37,2013-07-20 06:16:00,
2013-07-19 23:21:00,55.4,51.0,29.03,SSE,158,2.3,2.3,85,0.00,CLR,OVC,0.00,WeatherDisplay:10.37,2013-07-20 06:21:00,
2013-07-19 23:26:00,55.4,51.0,29.03,West,270,2.6,2.6,85,0.00,CLR,OVC,0.00,WeatherDisplay:10.37,2013-07-20 06:26:00,
2013-07-19 23:31:00,55.4,51.3,29.03,SW,225,3.5,3.5,86,0.00,CLR,OVC,0.00,WeatherDisplay:10.37,2013-07-20 06:31:00,
2013-07-19 23:36:00,55.4,51.0,29.03,SSW,202,3.5,3.5,85,0.00,CLR,OVC,0.00,WeatherDisplay:10.37,2013-07-20 06:36:00,
2013-07-19 23:41:00,55.4,51.3,29.03,SW,225,6.9,6.9,86,0.00,CLR,OVC,0.00,WeatherDisplay:10.37,2013-07-20 06:41:00,
2013-07-19 23:46:00,55.2,51.1,29.03,SW,225,3.5,3.5,86,0.00,CLR,OVC,0.00,WeatherDisplay:10.37,2013-07-20 06:46:00,
2013-07-19 23:51:00,55.2,50.8,29.03,ESE,112,1.8,1.8,85,0.00,CLR,OVC,0.00,WeatherDisplay:10.37,2013-07-20 06:51:00,
2013-07-19 23:57:00,55.2,50.8,29.02,South,180,2.3,2.3,85,0.00,CLR,OVC,0.00,WeatherDisplay:10.37,2013-07-20 06:57:00,